Location: Edmondson
(35.1065°N, 90.3104°W)
Time: 17:09:43
(UTC+00:00)

Envisat - Pass Details

Date: 07 October 2024
Orbit: 761 x 763 km, 98.3° (Epoch: 05 November)

Event Time Altitude Azimuth Distance (km) Brightness Sun altitude
Rises 10:17:30 0° 353° (N) 3,230 6.3 -22.0°
Reaches altitude 10° 10:20:28 10° 335° (NNW) 2,300 5.3 -21.4°
Enters shadow 10:21:01 12° 330° (NNW) 2,166 5.1 -21.3°
